sat.trackr.live / text

‹ back to catalog

QIANFAN-137

NORAD 69083 · 2026-104L

PAYLOAD ACTIVE UNKNOWN

§ Identity

Operator
Country
PRC
Launch date
2026-05-12
Launch site
TAISC
Launch vehicle
Mass (kg)
RCS (m²)

External: N2YO · Heavens-Above · Gunter

§ Orbital elements

Epoch: 2026-09-20T04:28:45.468768Z

Period
106.59 min
Inclination
88.9913°
Eccentricity
0.0002259
Mean motion
13.51022044 rev/d
Perigee alt
1,066.8 km
Apogee alt
1,070.2 km
Semi-major
7,446.6 km
B*
9.3051e-5
RAAN
331.6742°
Arg perigee
100.1542°
Mean anomaly
259.9864°
Rev number
1,804

§ Raw data

QIANFAN-1371 69083U 26104L   26263.18663737  .00000072  00000+0  93051-4 0  99992 69083  88.9913 331.6742 0002259 100.1542 259.9864 13.51022044 18041

JSON: /api/v1/satellites/69083 · /tle

For live sub-satellite position, see the globe view (requires WebGL).

§ Visibility from observer

Set your observer location to see the next 7 days of passes ≥ 10°. The values pass through the URL so the page stays shareable.

No JS? Fill the form by hand. The geolocation button needs JavaScript.